{"data":{"norad_id":65046,"intl_designator":"2025-162D","name":"HULIANWANG DIGUI-43","alt_names":[],"object_type":"PAYLOAD","status":"ACTIVE","operator":null,"country":"PRC","launch_date":"2025-07-30","launch_site_code":"WSC","launch_vehicle":null,"mission":null,"orbit_class":"UNKNOWN","rcs_meters":null,"size_class":null,"mass_kg":null,"dimensions":null,"purposes":[],"wikipedia_slug":null,"has_3d_model":false,"image_url":null,"decayed_at":null,"tle_current":{"epoch":"2026-05-25T03:15:58.416192Z","epoch_age_seconds":66455,"freshness":"FRESH","line1":"1 65046U 25162D   26145.13609278 -.00000089  00000+0  74914-4 0  9997","line2":"2 65046  50.0004 348.3834 0000486  48.0235 312.0678 13.29322706 40292","mean_motion":13.29322706,"eccentricity":4.86e-5,"inclination_deg":50.0004,"raan_deg":348.3834,"arg_perigee_deg":48.0235,"mean_anomaly_deg":312.0678,"bstar":7.4914e-5,"rev_number":4029,"period_min":108.32584093392,"perigee_km":1148.9531725907,"apogee_km":1149.6848413146,"semimajor_km":7527.4560069526,"source":"CELESTRAK","updated_at":"2026-05-25T13:38:05.087541Z"}}}